This is the latest recevied weather packets stored in our database for station/object W0AKY-13. If no packets are shown the sender has not sent any weather packets the latest 10 day(s).
| Time | Temp. | Humidity | Pressure | Rain* | Wind** | Luminosity | Snow |
|---|---|---|---|---|---|---|---|
| 1777402324 | 11.11° C | 67% | 1018.7 hPa | 0 mm | - | 24 W/m² | - |
| 1777402023 | 11.67° C | 64% | 1018.6 hPa | 0 mm | - | 48 W/m² | - |
| 1777401723 | 11.67° C | 63% | 1018.4 hPa | 0 mm | - | 94 W/m² | - |
| 1777401419 | 11.67° C | 66% | 1018.4 hPa | 0 mm | - | 118 W/m² | - |
| 1777401114 | 11.67° C | 66% | 1018.4 hPa | 0 mm | - | 112 W/m² | - |
| 1777400810 | 11.67° C | 66% | 1018.6 hPa | 0 mm | - | 110 W/m² | - |
| 1777400507 | 11.67° C | 64% | 1018.7 hPa | 0 mm | - | 119 W/m² | - |
| 1777400204 | 11.67° C | 67% | 1018.7 hPa | 0 mm | - | 89 W/m² | - |
| 1777399899 | 11.67° C | 65% | 1018.9 hPa | 0 mm | - | 52 W/m² | - |
| 1777399597 | 11.67° C | 64% | 1018.9 hPa | 0 mm | - | 59 W/m² | - |
| 1777399294 | 11.67° C | 68% | 1019.4 hPa | 0 mm | - | 62 W/m² | - |
| 1777398992 | 11.67° C | 62% | 1019.3 hPa | 0 mm | - | 66 W/m² | - |
| 1777398689 | 11.67° C | 64% | 1019.3 hPa | 0 mm | - | 78 W/m² | - |
| 1777398386 | 12.22° C | 63% | 1019.2 hPa | 0 mm | - | 100 W/m² | - |
| 1777398082 | 12.22° C | 63% | 1019.1 hPa | 0 mm | - | 136 W/m² | - |
| 1777397780 | 12.22° C | 62% | 1019.1 hPa | 0 mm | - | 224 W/m² | - |
| 1777397474 | 12.78° C | 61% | 1019 hPa | 0 mm | - | 131 W/m² | - |
| 1777397171 | 12.78° C | 62% | 1019.3 hPa | 0 mm | - | 99 W/m² | - |
| 1777396868 | 13.33° C | 61% | 1019 hPa | 0 mm | - | 208 W/m² | - |
| 1777396564 | 12.78° C | 64% | 1018.7 hPa | 0 mm | - | 721 W/m² | - |
| 1777396261 | 12.78° C | 65% | 1018.5 hPa | 0 mm | - | 180 W/m² | - |
| 1777395956 | 12.22° C | 64% | 1018.7 hPa | 0 mm | - | 710 W/m² | - |
| 1777395652 | 12.22° C | 66% | 1018.5 hPa | 0 mm | - | 166 W/m² | - |
| 1777395349 | 11.67° C | 67% | 1018.7 hPa | 0 mm | - | 622 W/m² | - |
| 1777395047 | 11.11° C | 67% | 1018.7 hPa | 0 mm | - | 191 W/m² | - |
* Rain latest hour (hover to see other rain measurements)
** Current wind speed in m/s (hover to see current wind gust speed)